2020-085J

Last updated on Thu Dec 03 2020 00:02:04 GMT+0000 (Coordinated Universal Time)

1 46937U 20085J 20337.62549885 .00009906 00000-0 44711-3 0 9990 2 46937 97.3687 112.0031 0015005 255.2906 104.6667 15.21089308 1906
UTC large
Height (km)
Speed (km/s)
/
Latitude / Longitude
Inclination (degrees)
Orbital Period (minutes)
Azimuth
Elevation
Range (km)
Doppler Factor

Next 0 passes for location: London (51.5072 / 0.1276)

Sorry there are no passes over London.